TimeCDT,TemperatureF,Dew PointF,Humidity,Sea Level PressureIn,VisibilityMPH,Wind Direction,Wind SpeedMPH,Gust SpeedMPH,PrecipitationIn,Events,Conditions,WindDirDegrees,DateUTC
12:53 AM,64.9,57.9,78,29.63,9.0,SE,12.7,-,N/A,,Overcast,130,2013-04-09 05:53:00
1:53 AM,64.9,57.9,78,29.62,9.0,SE,16.1,-,N/A,,Overcast,140,2013-04-09 06:53:00
2:53 AM,64.0,57.9,80,29.59,8.0,SE,12.7,-,N/A,,Overcast,140,2013-04-09 07:53:00
3:53 AM,64.0,57.9,80,29.58,8.0,SSE,15.0,-,N/A,,Overcast,150,2013-04-09 08:53:00
4:53 AM,63.0,57.9,84,29.57,8.0,SSE,15.0,23.0,N/A,,Overcast,160,2013-04-09 09:53:00
5:53 AM,64.9,57.9,78,29.60,8.0,South,10.4,-,N/A,,Overcast,170,2013-04-09 10:53:00
6:53 AM,64.9,57.9,78,29.62,9.0,South,15.0,23.0,N/A,,Overcast,170,2013-04-09 11:53:00
7:53 AM,64.9,57.9,78,29.64,7.0,SSE,11.5,-,N/A,,Overcast,160,2013-04-09 12:53:00
8:53 AM,66.0,57.9,75,29.66,7.0,South,16.1,-,N/A,,Overcast,170,2013-04-09 13:53:00
9:53 AM,68.0,59.0,73,29.67,7.0,South,18.4,23.0,N/A,,Overcast,170,2013-04-09 14:53:00
10:22 AM,68.0,59.0,73,29.72,7.0,South,11.5,19.6,N/A,,Overcast,190,2013-04-09 15:22:00
10:53 AM,68.0,59.0,73,29.70,7.0,South,18.4,23.0,N/A,,Overcast,190,2013-04-09 15:53:00
11:48 AM,69.8,59.0,68,29.72,7.0,South,12.7,-,N/A,,Overcast,170,2013-04-09 16:48:00
11:53 AM,69.1,59.0,70,29.70,7.0,South,12.7,-,N/A,,Overcast,180,2013-04-09 16:53:00
12:53 PM,73.9,60.1,62,29.68,7.0,SSE,18.4,-,N/A,,Mostly Cloudy,160,2013-04-09 17:53:00
1:53 PM,73.0,57.9,59,29.66,6.0,SSE,19.6,-,N/A,,Haze,150,2013-04-09 18:53:00
2:53 PM,72.0,59.0,64,29.66,6.0,SE,13.8,23.0,N/A,,Haze,140,2013-04-09 19:53:00
3:13 PM,71.6,60.8,69,29.67,6.0,SE,19.6,25.3,N/A,,Haze,140,2013-04-09 20:13:00
3:21 PM,71.6,60.8,69,29.67,6.0,SE,15.0,25.3,N/A,,Haze,140,2013-04-09 20:21:00
3:36 PM,71.6,59.0,64,29.67,6.0,SE,13.8,-,N/A,,Haze,140,2013-04-09 20:36:00
3:53 PM,71.1,59.0,66,29.65,6.0,SE,12.7,19.6,N/A,,Haze,140,2013-04-09 20:53:00
4:53 PM,71.1,60.1,68,29.65,6.0,SE,16.1,-,N/A,,Haze,140,2013-04-09 21:53:00
5:53 PM,73.0,60.1,64,29.65,7.0,SSE,18.4,-,N/A,,Overcast,160,2013-04-09 22:53:00
6:44 PM,55.4,51.8,88,29.72,10.0,West,17.3,27.6,N/A,,Overcast,270,2013-04-09 23:44:00
6:53 PM,55.0,51.1,86,29.72,10.0,WNW,16.1,23.0,N/A,,Overcast,290,2013-04-09 23:53:00
7:15 PM,53.6,50.0,88,29.72,10.0,WNW,11.5,-,N/A,,Mostly Cloudy,300,2013-04-10 00:15:00
7:25 PM,53.6,50.0,88,29.73,10.0,WNW,12.7,-,N/A,,Overcast,290,2013-04-10 00:25:00
7:27 PM,53.6,50.0,88,29.74,10.0,WNW,13.8,-,N/A,,Mostly Cloudy,290,2013-04-10 00:27:00
7:53 PM,51.1,48.0,89,29.75,10.0,WNW,16.1,-,N/A,,Overcast,290,2013-04-10 00:53:00
8:53 PM,48.0,45.0,89,29.76,10.0,NW,19.6,28.8,N/A,,Overcast,320,2013-04-10 01:53:00
9:53 PM,46.9,44.1,90,29.79,10.0,NNW,17.3,-,N/A,,Overcast,330,2013-04-10 02:53:00
10:28 PM,46.4,44.6,93,29.79,8.0,NNW,24.2,28.8,0.00,Rain-Thunderstorm,Light Rain,340,2013-04-10 03:28:00
10:53 PM,44.1,43.0,96,29.82,3.0,NW,19.6,26.5,0.16,Rain-Thunderstorm,Light Thunderstorms and Rain,320,2013-04-10 03:53:00
10:55 PM,44.6,42.8,93,29.81,1.5,NW,24.2,31.1,0.10,Rain-Thunderstorm,Heavy Thunderstorms and Rain,320,2013-04-10 03:55:00
10:57 PM,42.8,42.8,100,29.82,1.0,NNW,20.7,31.1,0.15,Rain-Thunderstorm,Heavy Thunderstorms and Rain,330,2013-04-10 03:57:00
11:05 PM,42.8,41.0,93,29.81,1.5,NNW,17.3,26.5,0.17,Rain-Thunderstorm,Thunderstorms and Rain,340,2013-04-10 04:05:00
11:08 PM,42.8,41.0,93,29.82,3.0,NNW,17.3,23.0,0.18,Rain-Thunderstorm,Thunderstorms and Rain,330,2013-04-10 04:08:00
11:53 PM,37.9,36.0,93,29.90,6.0,NNW,20.7,28.8,0.23,Rain-Thunderstorm,Light Thunderstorms and Rain,330,2013-04-10 04:53:00